Regional Weather Roundup
Issued by NWS Portland, ME

Home | Current Version | Previous Version | Text Only | Print | Product List | Glossary On
Versions: 1 2 3 4 5 6 7 8 9 10 11 12 13 14 15 16 17 18 19 20 21 22 23 24 25 26 27 28 29 30 31 32 33 34 35 36 37 38 39 40 41 42 43 44 45 46 47 48 49 50
000
ASUS41 KGYX 182110
RWRGYX
WEATHER ROUNDUP FOR MAINE AND NEW HAMPSHIRE
NATIONAL WEATHER SERVICE GRAY ME
500 PM EDT FRI APR 18 2014

MEZ002-005-006-010-012-015-018-020-021-024-026-027-029-182200-
MAINE

CITY           SKY/WX    TMP DP  RH WIND       PRES   REMARKS
PORTLAND       CLOUDY    38  28  67 S10       30.40F
SANFORD        CLOUDY    43  -9  11 SE6       30.37F
BAR HARBOR     PTSUNNY   39  30  70 SW10      30.40F
WISCASSET      CLOUDY    39  28  64 S7        30.42F
ROCKLAND       CLOUDY    37  28  70 S7        30.41F
FRYEBURG       CLOUDY    48  24  39 SE7       30.32F
LEWISTONAUBURN CLOUDY    41  27  56 S10       30.36F
AUGUSTA        CLOUDY    43  23  45 S10G20    30.36F
WATERVILLE     CLOUDY    46  25  42 S5        30.31F
BANGOR         CLOUDY    45  26  47 S13       30.37F
GREENVILLE       N/A     43  19  38 VRB7G16   30.25F
MILLINOCKET    CLOUDY    49  19  30 VRB3      30.33F
HOULTON        CLOUDY    48  18  30 SW10      30.30F
PRESQUE ISLE   CLOUDY    46  19  34 SE9       30.30F
FRENCHVILLE    CLOUDY    41  22  46 SE9       30.26F
CARIBOU        CLOUDY    46  21  37 SE10      30.28F
$$

NHZ002-005-008-009-011-012-014-182200-
NEW HAMPSHIRE

CITY           SKY/WX    TMP DP  RH WIND       PRES   REMARKS
PORTSMOUTH     CLOUDY    40  28  64 SE8       30.38F
ROCHESTER      CLOUDY    41  28  60 S6        30.36F
NASHUA         CLOUDY    47  28  47 SE8       30.35F
MANCHESTER     CLOUDY    45  27  49 E8        30.33F
CONCORD        CLOUDY    46  26  45 SE8       30.34F
LACONIA        CLOUDY    46  25  42 SW5       30.33F
PLYMOUTH         N/A     47  21  35 S5        30.31F
BERLIN         CLOUDY    49  21  33 SE10      30.27F
WHITEFIELD     CLOUDY    50  15  24 SW8       30.27S
JAFFREY        CLOUDY    44  25  47 S7        30.32F
LEBANON        CLOUDY    50  21  32 S6        30.30F
MT WASHINGTON  CLOUDY    28   1  31 W32         N/A  WCI  12
$$

VTZ005-007-008-182200-
VERMONT

CITY           SKY/WX    TMP DP  RH WIND       PRES   REMARKS
ST JOHNSBURY     N/A     49  20  31 MISG      30.26F
MONTPELIER     CLOUDY    47  19  33 S13       30.30F
BURLINGTON     CLOUDY    52  16  24 S12       30.23F
$$

MAZ007-012-024-CTZ003-RIZ002-NYZ038-NYZ072-182200-
SOUTHERN NEW ENGLAND AND NY

CITY           SKY/WX    TMP DP  RH WIND       PRES   REMARKS
BOSTON         CLOUDY    40  31  70 E10       30.38F
WORCESTER      CLOUDY    43  27  53 E3        30.32F
NANTUCKET      CLOUDY    44  35  70 N10       30.37F
PROVIDENCE     CLOUDY    49  29  46 NE6       30.35F
HARTFORD       CLOUDY    48  26  42 CALM      30.34F
ALBANY         CLOUDY    50  23  34 S15       30.30F
NEW YORK CITY  CLOUDY    45  30  55 NE9       30.37F
$$

ANZ081-ANZ082-ANZ150-NHZ014-MEZ023>029-182200-
COASTAL MARINE OBSERVATIONS

STATION/POSITION TIME  TEMP    WIND        PRES    WAVE
                       AIR SEA DIR/SP/G            HT/PER
                 (UTC) (F)     (DEG/KT/KT) (MB)    (FT/S)
MOUNT DESERT ROC 2100   37                 1029.4F
MATINICUS ROCK   2100   37     160/  6/  8 1029.6F
PORTLAND WX BUOY 2100   38 41  180/  6/  8 1029.6F   5/ 9
WELLS            2100   38 41  140/  5/  7 1028.3F
ISLE OF SHOALS   2100   37     110/  5/  6 1028.4F
JEFFREYS LEDGE   2100      41                N/A     6/ 9
CASHES LEDGE BUO 2100   38 41  110/  6/  8 1029.5F   7/ 9
$$

.............KEY..............
   WCI - WIND CHILL
   TC  - TEMPERATURE IN CELSIUS
   VSB - VISIBILITY IN MILES
   HX  - HEAT INDEX
   FAIR- INDICATES FEW OR NO CLOUDS BELOW 12,000 FT, WITH NO
         SIGNIFICANT WEATHER AND/OR OBSTRUCTIONS TO VISIBILITY.





USA.gov is the U.S. government's official web portal to all federal, state and local government web resources and services.